Terminal Aerodrome Forecast
Issued by NWS Louisville, KY

Home | Current Version | Previous Version | Text Only | Print | Product List | Glossary On
Versions: 1 2 3 4 5 6 7 8 9 10 11 12 13 14 15
000
FTUS43 KLMK 172325
TAFSDF
TAF
KSDF 172325Z 1800/1906 26004KT P6SM FEW090
     FM181800 23009KT P6SM SKC=

USA.gov is the U.S. government's official web portal to all federal, state and local government web resources and services.